Location: Seattle
(47.6064°N, 122.3308°W)
Time: 01:42:59
(UTC-08:00)

Envisat - Pass Details

Date: 02 November 2020
Orbit: 764 x 766 km, 98.1° (Epoch: 03 December)

Event Time Altitude Azimuth Distance (km) Brightness Sun altitude
Rises 18:14:10 0° 200° (SSW) 3,221 6.6 -14.7°
Reaches altitude 10° 18:16:53 10° 213° (SSW) 2,300 6.0 -15.1°
Maximum altitude 18:20:58 24° 268° (W) 1,536 5.5 -15.8°
Drops below altitude 10° 18:25:06 10° 322° (NW) 2,313 5.9 -16.5°
Sets 18:27:50 0° 336° (NNW) 3,245 6.5 -17.0°
